Location: Lombard
(41.8800°N, 88.0080°W)
Time: 13:17:15
(UTC-06:00)

Transit 4A - Pass Details

Date: 08 December 2023
Orbit: 870 x 973 km, 66.8° (Epoch: 03 March)

Event Time Altitude Azimuth Distance (km) Brightness Sun altitude
Rises 19:21:35 0° 218° (SW) 3,655 11.5 -32.8°
Reaches altitude 10° 19:24:10 10° 221° (SW) 2,711 10.8 -33.3°
Enters shadow 19:29:35 58° 262° (W) 1,119 8.4 -34.3°
Maximum altitude 19:30:29 65° 303° (WNW) 1,059 - -34.5°
Drops below altitude 10° 19:36:46 10° 25° (NNE) 2,694 - -35.6°
Sets 19:39:20 0° 29° (NNE) 3,630 - -36.1°
